User: anonymous   Login
Location: Baia de Cri?
(46.1667°N, 22.7167°E)
Time: 16:24:40
(UTC+00:00)
Language:

COSMO-SKYMED 1 - Orbit

View from above orbital plane
View from above orbital plane
View from above satellite
View from above satellite

Ground track
Ground track

The orbit is defined by the following mean orbital elements,

1 31598U          26076.28660714 +.00000000 +00000-0 +28770-3 0 00001
2 31598  97.8881 267.3805 0001568  90.5018 269.6383 14.96600663    01
Epoch (UTC): 17 March 2026 06:52:42
Eccentricity: 0.0001568
inclination: 97.8881°
perigee height: 576 km
apogee height: 579 km
right ascension of ascending node: 267.3805°
argument of perigee: 90.5018°
revolutions per day: 14.96600663
mean anomaly at epoch: 269.6383°

The dashed part of the orbit path shows where the satellite is in the earth's shadow,  

DLR